#timestamp,LO_Frequency,Hit,StdDev 
1652025615.4,286046996.5,N
1652025635.2,286046998.6,N
1652025655.1,286046998.3,N
1652025656.0,286046998.3,N
1652025675.8,286046999.8,N
1652025695.7,286047006.0,Y
1652025715.5,286047008.6,P
1652025735.3,286047012.4,N
1652025755.2,286047012.7,N
1652025775.0,286047009.4,N
1652025775.9,286047009.4,N
1652025795.8,286047008.4,N
1652025815.6,286047008.3,N
1652025835.4,286047006.9,N
1652025855.3,286047005.1,N
1652025875.1,286047003.3,N
1652025895.8,286047005.8,N
1652025915.7,286047003.8,N
1652025935.5,286047007.3,N
1652025955.4,286047007.7,N
1652025975.2,286047010.7,Y
1652025995.0,286047006.0,P
1652025995.9,286047006.0,P
1652026015.8,286047009.8,P
1652026035.6,286047009.0,Y
1652026055.5,286047002.5,P
1652026075.3,286047003.0,N
1652026095.1,286047001.7,N
1652026115.9,286047000.3,N
1652026135.7,286047002.3,N
1652026155.5,286047002.0,N
1652026175.4,286047004.4,N
1652026195.2,286046999.8,N
1652026215.0,286047001.7,N
1652026216.0,286047001.7,N
1652026235.8,286046999.7,N
1652026255.6,286046998.3,N
1652026275.5,286047001.2,N
1652026295.3,286046998.3,N
1652026315.1,286047000.5,N
1652026335.9,286047004.0,N
1652026355.7,286047001.5,N
1652026375.6,286047005.3,N
1652026395.4,286047005.7,N
1652026415.2,286047004.8,N
1652026435.1,286047000.1,N
1652026436.0,286047000.1,N
1652026455.8,286047001.6,N
1652026475.7,286047004.0,N
1652026495.5,286047002.0,N
1652026515.3,286047002.4,N
1652026535.2,286047004.1,N
1652026555.9,286047002.0,N
1652026575.7,286046999.4,N
1652026595.6,286046998.0,N
1652026615.4,286046997.6,N
1652026635.3,286046998.0,N
1652026655.1,286046995.8,N
1652026656.0,286046995.8,N
1652026675.8,286046995.1,N
1652026695.7,286046999.0,N
1652026715.5,286046999.5,N
1652026735.3,286046997.4,N
1652026755.2,286046995.6,N
1652026775.0,286046993.8,N
1652026775.9,286046993.8,N
1652026795.8,286046997.2,N
1652026815.6,286046999.3,N
1652026835.4,286046999.3,N
1652026855.3,286047002.4,N
1652026875.1,286046998.2,N
1652026895.8,286046997.8,N
1652026915.7,286046998.8,N
1652026935.5,286047000.6,N
1652026955.4,286046999.2,N
1652026975.2,286046996.0,N
1652026995.0,286046993.6,N
1652026995.9,286046993.6,N
1652027015.8,286046994.3,N
1652027035.6,286046993.0,N
1652027055.4,286046992.8,N
1652027075.3,286046994.2,N
1652027095.1,286046993.4,N
1652027115.9,286046993.5,N
1652027135.7,286046996.6,N
1652027155.5,286046997.9,N
1652027175.4,286046995.9,N
1652027195.2,286046997.8,N
1652027215.1,286046996.6,N
1652027216.0,286046996.6,N
1652027235.8,286046997.1,N
1652027255.6,286046996.0,N
1652027275.5,286046993.4,N
1652027295.3,286046994.5,N
1652027315.1,286046993.5,N
1652027335.9,286046994.2,N
1652027355.7,286046997.9,N
1652027375.6,286046997.4,N
1652027395.4,286046993.7,N
1652027415.2,286046997.9,N
1652027435.1,286046997.5,N
1652027436.0,286046997.5,N
1652027455.8,286046999.0,N
1652027475.6,286046997.9,N
1652027495.5,286046997.2,N
1652027515.3,286046995.5,N
1652027535.2,286046996.5,N
1652027555.9,286046999.2,N
1652027575.7,286046997.5,N
1652027595.6,286046996.2,N
1652027615.4,286046993.4,Y
1652027635.2,286046995.3,P
1652027655.1,286046996.1,P
1652027656.0,286046996.1,P
1652027675.8,286046996.4,Y
1652027695.7,286046998.2,P
1652027715.5,286047002.4,N
1652027735.3,286047001.7,N
1652027755.2,286047002.8,N
1652027775.0,286047003.0,N
1652027775.9,286047003.0,N
1652027795.8,286047002.9,N
1652027815.6,286047005.9,N
1652027835.4,286047007.2,N
1652027855.3,286047007.4,N
1652027875.1,286047004.3,N
1652027895.8,286047004.4,N
1652027915.7,286047001.3,N
1652027935.5,286047002.9,N
1652027955.4,286047007.5,N
1652027975.2,286047005.9,N
1652027995.0,286047002.9,N
1652027995.9,286047002.9,N
1652028015.8,286047007.3,N
1652028035.6,286047005.5,N
1652028055.4,286047005.2,N
1652028075.3,286047006.8,N
1652028095.1,286047004.9,N
1652028115.9,286047001.7,N
1652028135.7,286047001.6,N
1652028155.5,286047004.4,N
1652028175.4,286047004.3,N
1652028195.2,286047005.3,N
1652028215.0,286047008.9,Y
1652028215.9,286047008.9,P
1652028235.8,286047005.6,N
1652028255.6,286047005.4,N
1652028275.5,286047006.0,Y
1652028295.3,286046997.2,P
1652028315.1,286046997.1,N
1652028335.9,286046996.5,N
1652028355.7,286047001.2,N
1652028375.6,286046998.6,N
1652028395.4,286046999.4,N
1652028415.2,286046998.1,N
1652028435.1,286047000.9,N
1652028436.0,286047000.9,N
1652028455.8,286047002.6,N
1652028475.6,286047002.8,N
1652028495.5,286046996.9,N
1652028515.3,286046996.1,N
1652028535.2,286046991.8,N
1652028555.9,286046992.1,N
1652028575.7,286046992.1,N
1652028595.6,286046994.0,N
1652028615.4,286046997.1,N
1652028635.2,286046994.2,N
1652028655.1,286046997.5,N
1652028656.0,286046997.5,N
1652028675.8,286046995.1,N
1652028695.7,286046995.7,N
1652028715.5,286046994.0,N
1652028735.3,286046993.8,N
1652028755.2,286046994.6,N
1652028775.0,286046993.3,N
1652028775.9,286046993.3,N
1652028795.7,286046996.0,N
1652028815.6,286046993.3,N
1652028835.4,286046994.6,N
1652028855.3,286046993.3,N
1652028875.1,286046996.4,N
1652028876.0,286046996.4,N
1652028895.8,286046995.1,N
1652028915.7,286046997.5,N
1652028935.5,286046994.0,N
1652028955.4,286046996.2,N
1652028975.2,286046995.3,N
1652028995.0,286046995.8,N
1652028995.9,286046995.8,N
1652029015.8,286046995.6,N
1652029035.6,286046996.7,N
1652029055.4,286046995.2,N
1652029075.3,286046993.7,Y
1652029095.1,286047000.2,P
1652029115.9,286047004.4,N
1652029135.7,286046999.8,N
1652029155.5,286047002.0,N
1652029175.4,286047000.0,N
1652029195.2,286047000.5,N
